[[{"header":{"parameterUnit":"m.s-1","parameterCategory":1,"la1":30.2991,"la2":30.254,"lo1":-89.0895,"lo2":-89.0444,"dy":0.0017,"dx":0.0017,"nx":28,"ny":28,"refTime":"2024-04-08T21:00:00:Z","depth":0,"parameterNumber":2,"parameterNumberName":"U-component_of_WINDS"},"data":[0,0,0,0,0,0,0,0,0,0,0,0,0,0,0,0,0,0,0,0,0,0,0,0,0,0,0,0,0,0,0,0,0,0,0,0,0,0,0,0,0,0,0,0,0,0,0,0,0,0,0,0,0,0,0,0,0,0,-5.8977,-5.8978,0,-5.9082,-5.9083,-5.9084,-5.9031,-5.9028,-5.9025,-5.9022,-5.9128,-5.9133,-5.9138,0,0,0,0,0,0,0,0,0,0,0,0,0,-5.873,-5.8735,-5.8977,-5.8978,-5.8979,-5.9082,-5.9083,-5.9084,-5.9031,-5.9028,-5.9024,-5.9021,-5.9126,-5.9132,-5.9139,0,0,0,0,0,0,0,0,0,0,0,0,0,-5.8836,-5.8736,-5.8977,-5.8965,-5.8965,-5.9081,-5.9083,-5.9085,-5.9032,-5.9028,-5.9023,-5.902,-5.9124,-5.9132,-5.914,-5.9272,0,0,-5.9164,-5.9168,0,0,0,0,0,0,0,0,-5.883,-5.8845,-5.8966,-5.8966,-5.8966,-5.9039,-5.9035,-5.9148,-5.9033,-5.9006,-5.9022,-5.9018,-5.9101,-5.9111,-5.914,-5.9277,-5.9282,-5.9165,-5.917,-5.9173,-5.9176,0,0,0,0,0,0,0,-5.8823,-5.8841,-5.9018,-5.8967,-5.8968,-5.8955,-5.8965,-5.9056,-5.9076,-5.9008,-5.9005,-5.9018,-5.9101,-5.9132,-5.9142,-5.9283,-5.9165,-5.9172,-5.9177,-5.918,-5.9536,-5.954,0,0,0,0,0,0,-5.8816,-5.8835,-5.9015,-5.9021,-5.8887,-5.8963,-5.8974,-5.902,-5.9075,-5.9079,-5.9022,-5.9015,-5.912,-5.9133,-5.9145,-5.9304,-5.9173,-5.9181,-5.9186,-5.9531,-5.9537,-5.9542,0,0,0,0,0,0,-5.8811,-5.8833,-5.9011,-5.8927,-5.8949,-5.8971,-5.9023,-5.9024,-5.9055,-5.9085,-5.9088,-5.905,-5.9118,-5.9134,-5.9242,-5.9306,-5.9185,-5.9192,-5.9526,-5.9533,-5.954,-5.9622,0,0,0,0,0,0,-5.8804,-5.8831,-5.8882,-5.8929,-5.8954,-5.9105,-5.9027,-5.9029,-5.9069,-5.9062,-5.9112,-5.9116,-5.9116,-5.923,-5.925,-5.9315,-5.9198,-5.952,-5.9529,-5.9537,-5.9613,-5.963,-5.9645,0,0,0,0,0,-5.8796,-5.89,-5.8885,-5.8907,-5.9017,-5.9109,-5.9123,-5.9121,-5.9075,-5.9126,-5.9145,-5.9115,-5.9297,-5.9241,-5.9263,-5.9332,-5.9516,-5.9527,-5.9537,-5.9606,-5.9627,-5.9645,0,0,0,0,0,0,-5.8858,-5.8906,-5.8889,-5.9012,-5.9057,-5.91,-5.9163,-5.9143,-5.9202,-5.9192,-5.9187,-5.9199,-5.931,-5.9333,-5.9269,-5.9464,-5.9399,-5.9415,-5.9445,-5.9465,-5.9481,-5.9471,-5.9205,0,0,0,0,0,-5.8887,-5.8958,-5.8996,-5.91,-5.9124,-5.9141,-5.918,-5.9175,-5.9221,-5.924,-5.9267,-5.9312,-5.938,-5.9424,-5.9488,-5.9618,-5.9627,-5.9677,-5.9693,-5.9706,-5.9718,-5.9788,-5.981,-5.9576,-5.9576,-5.9576,0,0,-5.8945,-5.898,-5.9025,-5.9114,-5.9148,-5.9221,-5.9156,-5.9236,-5.9291,-5.9252,-5.9354,-5.9377,-5.9427,-5.9546,-5.96,-5.9568,-5.9785,-5.9719,-5.9729,-5.9734,-5.9801,-5.9823,-5.9842,-5.9583,-5.9582,-5.9581,0,0,-5.9089,-5.9123,-5.9214,-5.9251,-5.9304,-5.9315,-5.9337,-5.9384,-5.9397,-5.9501,-5.9474,-5.9539,-5.9656,-5.9693,-5.9727,-5.989,-5.9863,-5.9911,-5.9993,-6.0062,-6.008,-6.0096,-6.0152,-6.0173,-5.9924,-5.9924,-5.9924,0,-5.9154,-5.9264,-5.9263,-5.9346,-5.9386,-5.9356,-5.9448,-5.9484,-5.9555,-5.9583,-5.9548,-5.9695,-5.9727,-5.9854,-5.9894,-5.9923,-5.9948,-5.9903,-6.0078,-6.0094,-6.0109,-6.0162,-6.0184,-5.9929,-5.9928,-5.9928,-5.9927,0,-5.9341,-5.9418,-5.9485,-5.9556,-5.9604,-5.9691,-5.9703,-5.9752,-5.9745,-5.9759,-5.9866,-5.9905,-5.9976,-6.0007,-5.9999,-6.0134,-6.0112,-6.0078,-6.0012,-6.0136,-6.0186,-6.0207,-5.9936,-5.9935,-5.9933,-5.9932,0,0,-5.9521,-5.9594,-5.9618,-5.9651,-5.971,-5.9769,-5.9856,-5.9927,-5.9968,-6.002,-6.0092,-6.0193,-6.0162,-6.0202,-6.0199,-6.026,-6.0384,-6.0217,-6.0219,-6.0245,-6.0534,-6.0556,-6.058,-6.0369,-6.0373,-6.0377,-6.0528,0,-5.9667,-5.9818,-5.9822,-5.996,-6.0031,-6.0007,-6.0082,-6.0127,-6.0144,-6.0207,-6.0226,-6.0297,-6.0252,-6.0276,-6.0335,-6.0356,-6.0441,-6.0346,-6.0434,-6.0437,-6.0418,-6.0607,-6.0631,-6.0772,-6.0548,-6.0552,-6.0554,0,-5.9856,-5.9915,-6.0061,-6.0111,-6.0141,-6.0208,-6.0274,-6.0336,-6.0386,-6.0395,-6.0441,-6.043,-6.0518,-6.0454,-6.0575,-6.051,-6.0548,-6.0564,-6.057,-6.0575,-6.05,-6.0614,-6.0817,-6.0837,-6.0585,-6.0583,-6.0581,0,-5.997,-6.0086,-6.0189,-6.0218,-6.0279,-6.0328,-6.0355,-6.0402,-6.0446,-6.0504,-6.0532,-6.06,-6.0637,-6.069,-6.0698,-6.065,-6.082,-6.0756,-6.0828,-6.0828,-6.0861,-6.0858,-6.107,-6.0892,-6.0891,-6.0891,-6.089,0,-6.013,-6.0219,-6.0241,-6.0303,-6.0404,-6.0408,-6.0507,-6.0531,-6.0574,-6.0641,-6.0626,-6.0688,-6.0697,-6.0763,-6.077,-6.0869,-6.0887,-6.0895,-6.0895,-6.0895,-6.0893,-6.0916,-6.0905,-6.0896,-6.0895,-6.0894,-6.0893,0,-6.0272,-6.029,-6.04,-6.0451,-6.0466,-6.0537,-6.0581,-6.0641,-6.0659,-6.0743,-6.0764,-6.0791,-6.0868,-6.0882,-6.0973,-6.0978,-6.1095,-6.1087,-6.1078,-6.1076,-6.1146,-6.1138,-6.1377,-6.1408,-6.1212,-6.1214,-6.1216,0,-6.037,-6.0439,-6.0498,-6.0542,-6.0573,-6.0645,-6.0689,-6.0698,-6.0745,-6.081,-6.0862,-6.0938,-6.0997,-6.1122,-6.1149,-6.1218,-6.121,-6.1289,-6.122,-6.1217,-6.1208,-6.1202,-6.1209,-6.1301,-6.1303,-6.1305,-6.1306,0,-6.0543,-6.0549,-6.0614,-6.0684,-6.0738,-6.0793,-6.0845,-6.0882,-6.0898,-6.0952,-6.1031,-6.1078,-6.1171,-6.1246,-6.1316,-6.1345,-6.1328,-6.1329,-6.1349,-6.1346,-6.1337,-6.1341,-6.111,-6.1322,-6.132,-6.1319,-6.1318,-6.1318,-6.0664,-6.0724,-6.0776,-6.0849,-6.089,-6.094,-6.0999,-6.1025,-6.1091,-6.1168,-6.117,-6.1256,-6.1308,-6.14,-6.1434,-6.1501,-6.1476,-6.1505,-6.1512,-6.1518,-6.1524,-6.133,-6.1515,-6.1514,-6.1514,-6.1513,-6.1513,0,-6.0833,-6.0866,-6.0934,-6.1008,-6.1067,-6.1049,-6.1107,-6.1156,-6.1232,-6.1282,-6.1343,-6.1434,-6.1508,-6.1543,-6.1615,-6.1663,-6.1657,-6.1681,-6.1676,-6.1682,-6.1543,-6.1517,-6.1685,-6.1685,-6.1685,-6.1684,-6.1684,-6.1684,-6.0928,-6.1028,-6.1042,-6.1163,-6.1195,-6.128,-6.1314,-6.136,-6.14,-6.1503,-6.1564,-6.1587,-6.1632,-6.1708,-6.1775,-6.1783,-6.1809,-6.1837,-6.1842,-6.171,-6.1692,-6.1675,-6.1651,-6.1843,-6.1844,-6.1975,-6.1976,-6.1977]},{"header":{"parameterUnit":"m.s-1","parameterCategory":1,"la1":30.2991,"la2":30.254,"lo1":-89.0895,"lo2":-89.0444,"dy":0.0017,"dx":0.0017,"nx":28,"ny":28,"refTime":"2024-04-08T21:00:00:Z","depth":0,"parameterNumber":3,"parameterNumberName":"V-component_of_WINDS"},"data":[0,0,0,0,0,0,0,0,0,0,0,0,0,0,0,0,0,0,0,0,0,0,0,0,0,0,0,0,0,0,0,0,0,0,0,0,0,0,0,0,0,0,0,0,0,0,0,0,0,0,0,0,0,0,0,0,0,0,2.5253,2.5253,0,2.5291,2.5292,2.5292,2.531,2.531,2.531,2.531,2.5345,2.5346,2.5347,0,0,0,0,0,0,0,0,0,0,0,0,0,2.5194,2.5195,2.5253,2.5253,2.5254,2.5291,2.5292,2.5292,2.531,2.531,2.531,2.531,2.5345,2.5346,2.5347,0,0,0,0,0,0,0,0,0,0,0,0,0,2.5225,2.5195,2.5253,2.5267,2.5269,2.5291,2.5292,2.5292,2.531,2.531,2.531,2.531,2.5345,2.5346,2.5348,2.5358,0,0,2.5352,2.5353,0,0,0,0,0,0,0,0,2.5223,2.5227,2.5264,2.5266,2.5268,2.5296,2.5284,2.5314,2.531,2.5294,2.531,2.531,2.5329,2.5331,2.5339,2.5359,2.5361,2.5352,2.5353,2.5354,2.5354,0,0,0,0,0,0,0,2.5221,2.5225,2.5268,2.5265,2.5267,2.5271,2.5276,2.529,2.5311,2.5295,2.5297,2.5301,2.533,2.5337,2.534,2.5361,2.5352,2.5353,2.5354,2.5355,2.5396,2.5396,0,0,0,0,0,0,2.5216,2.5223,2.5267,2.5269,2.5245,2.5273,2.5277,2.5287,2.5311,2.5315,2.5301,2.5302,2.5335,2.5338,2.5341,2.5356,2.5354,2.5355,2.5356,2.5395,2.5396,2.5396,0,0,0,0,0,0,2.5215,2.522,2.5265,2.5247,2.5253,2.5274,2.5284,2.5288,2.5295,2.5315,2.5319,2.5305,2.5335,2.5339,2.5354,2.5358,2.5356,2.5357,2.5395,2.5396,2.5396,2.5386,0,0,0,0,0,0,2.5213,2.522,2.5223,2.5247,2.5254,2.5278,2.5284,2.5288,2.5298,2.5299,2.532,2.5323,2.5335,2.5352,2.5356,2.536,2.5358,2.5395,2.5395,2.5396,2.5386,2.5385,2.5385,0,0,0,0,0,2.5211,2.5217,2.5223,2.5228,2.5259,2.5278,2.5282,2.5296,2.5298,2.5303,2.5316,2.5323,2.5357,2.5354,2.5358,2.5362,2.5395,2.5395,2.5396,2.5386,2.5385,2.5385,0,0,0,0,0,0,2.5191,2.522,2.5227,2.5241,2.5258,2.5281,2.5286,2.5295,2.531,2.531,2.5326,2.5331,2.5346,2.5355,2.5351,2.5375,2.5377,2.5378,2.5368,2.5368,2.5367,2.5364,2.5359,0,0,0,0,0,2.5189,2.5203,2.5227,2.5237,2.5245,2.5265,2.5273,2.5284,2.53,2.5307,2.5321,2.5336,2.5351,2.536,2.5374,2.5388,2.5393,2.5393,2.5393,2.5393,2.5393,2.5404,2.5405,2.5397,2.5397,2.5397,0,0,2.5184,2.5201,2.5208,2.5234,2.5247,2.5262,2.527,2.5283,2.5294,2.5308,2.5324,2.5336,2.5354,2.537,2.5377,2.5379,2.5397,2.5393,2.5393,2.5394,2.5405,2.5405,2.5406,2.5398,2.5398,2.5398,0,0,2.5181,2.5195,2.5207,2.5221,2.5243,2.5256,2.5259,2.5282,2.5291,2.5308,2.532,2.5333,2.5357,2.5371,2.5381,2.5388,2.5395,2.5392,2.5391,2.5401,2.5401,2.5402,2.5406,2.5407,2.5393,2.5393,2.5393,0,2.5171,2.5193,2.5211,2.5225,2.5237,2.5253,2.5265,2.5278,2.5302,2.531,2.5312,2.5345,2.5358,2.5378,2.5381,2.5388,2.5392,2.5389,2.54,2.5401,2.5402,2.5406,2.5407,2.5393,2.5393,2.5393,2.5393,0,2.518,2.5196,2.5202,2.5228,2.5241,2.5254,2.5274,2.5285,2.5295,2.5309,2.5327,2.5345,2.5364,2.537,2.5379,2.5392,2.5393,2.5397,2.5399,2.5402,2.5406,2.5407,2.5392,2.5392,2.5392,2.5392,0,0,2.5163,2.5202,2.5204,2.5218,2.5244,2.5257,2.5271,2.5293,2.5302,2.5319,2.5333,2.5355,2.5361,2.5372,2.5383,2.5392,2.5399,2.5396,2.5397,2.5396,2.5417,2.5413,2.5415,2.5405,2.5405,2.5405,2.5416,0,2.5164,2.5192,2.5211,2.5231,2.5247,2.5265,2.5278,2.5296,2.5311,2.5326,2.5341,2.5358,2.5363,2.5371,2.538,2.5396,2.5403,2.5396,2.5417,2.5418,2.5412,2.5417,2.5412,2.5421,2.5417,2.5418,2.5418,0,2.5169,2.5189,2.5211,2.524,2.5247,2.5259,2.5281,2.5296,2.5318,2.5328,2.5343,2.5355,2.5372,2.5374,2.5399,2.5393,2.5404,2.5413,2.5414,2.5416,2.5417,2.5419,2.5423,2.5425,2.542,2.542,2.542,0,2.5155,2.5187,2.5206,2.5217,2.525,2.5258,2.5272,2.5295,2.5307,2.5327,2.5336,2.5357,2.5368,2.5384,2.5402,2.5402,2.5426,2.5428,2.5435,2.5434,2.5437,2.5437,2.5444,2.5444,2.5444,2.5444,2.5444,0,2.5154,2.5168,2.5201,2.5212,2.5229,2.5251,2.5266,2.5282,2.5302,2.5317,2.5334,2.5348,2.5371,2.5388,2.5402,2.5421,2.5426,2.5435,2.5438,2.5433,2.5432,2.5439,2.5439,2.5445,2.5445,2.5445,2.5445,0,2.5141,2.5163,2.5185,2.5217,2.5225,2.5236,2.5263,2.5275,2.5292,2.5311,2.5317,2.5343,2.5364,2.5384,2.5412,2.5422,2.5441,2.5446,2.5434,2.5436,2.5441,2.5441,2.5453,2.5456,2.5454,2.5454,2.5454,0,2.5139,2.515,2.5184,2.5196,2.5211,2.523,2.5244,2.5267,2.5281,2.5309,2.5318,2.5342,2.5361,2.5394,2.5415,2.5437,2.5443,2.5446,2.5446,2.5441,2.5443,2.5443,2.5445,2.5445,2.5444,2.5444,2.5444,0,2.5133,2.5145,2.5165,2.519,2.5207,2.5227,2.5248,2.5257,2.5284,2.5299,2.5323,2.5338,2.5369,2.5391,2.5417,2.5431,2.5443,2.5445,2.5448,2.5442,2.5435,2.544,2.5433,2.5444,2.5444,2.5444,2.5444,2.5444,2.5125,2.5138,2.5164,2.5187,2.5206,2.5226,2.524,2.526,2.528,2.5308,2.5321,2.5344,2.5369,2.5405,2.542,2.5439,2.5441,2.5445,2.5446,2.5446,2.5446,2.5433,2.5443,2.5443,2.5443,2.5443,2.5444,0,2.5121,2.514,2.5161,2.5192,2.521,2.5222,2.5247,2.5261,2.5282,2.5305,2.5325,2.5353,2.5377,2.5401,2.5426,2.5437,2.5443,2.5443,2.5442,2.5446,2.5441,2.5437,2.5438,2.5438,2.5438,2.5438,2.5438,2.5438,2.5121,2.5143,2.5158,2.5191,2.521,2.5234,2.5248,2.5267,2.5286,2.5317,2.5337,2.5354,2.5378,2.5406,2.5428,2.5435,2.5444,2.5442,2.545,2.5445,2.5446,2.5446,2.5442,2.5444,2.5444,2.5453,2.5453,2.5453]}]]